Fortuna, CA

9:23 AM PDT on April 30, 2017 (GMT -0700)
Rohnerville

Weather History for KFOT - May, 2014

Change the Weather History Date:

Saturday, May 3, 2014

  Actual Average (KEKA) Record (KEKA)
Temperature  
Mean Temperature 56 °F -  
Max Temperature 64 °F 58 °F 73 °F (1989)
Min Temperature 48 °F 47 °F 39 °F (1950)
Degree Days  
Heating Degree Days 9    
Growing Degree Days 6 (Base 50)    
Moisture  
Dew Point 48 °F    
Average Humidity 74    
Maximum Humidity 100    
Minimum Humidity 52    
Precipitation  
Precipitation 0.00 in - - ()
Sea Level Pressure  
Sea Level Pressure 30.05 in    
Wind  
Wind Speed 4 mph (WNW)    
Max Wind Speed 14 mph    
Max Gust Speed 18 mph    
Visibility 10 miles    
Events      
Averages and records for this station are not official NWS values.
T = Trace of Precipitation, MM = Missing Value Source: NWS Daily Summary

Daily Weather History Graph

Daily Weather History Graph

Search for Another Location

Airport or City:

Trip Planner

Search our weather history database for the weather conditions in past years. The results will help you decide how hot, cold, wet, or windy it might be!

Date:

Astronomy

May. 03, 2014 Rise Set
Actual Time 6:12 AM PDT 8:14 PM PDT
Civil Twilight 5:43 AM PDT 8:44 PM PDT
Nautical Twilight 5:06 AM PDT 9:21 PM PDT
Astronomical Twilight 4:27 AM PDT 10:00 PM PDT
Moon 9:47 AM PDT (5/3) No Moon Set
Length of Visible Light 15h 01m
Length of Day
14h 01m
Waxing Crescent, 20% of the Moon is Illuminated
May 3
Waxing Crescent
May 6
First Quarter
May 14
Full
May 21
Last Quarter
May 28
New

Hourly Weather History & Observations

Time (PDT) Temp. Dew Point Humidity Pressure Visibility Wind Dir Wind Speed Gust Speed Precip Events Conditions
12:15 AM 53.6 °F 51.8 °F 94% 30.10 in 10.0 mi WNW 3.5 mph - N/A   Overcast
12:35 AM 53.6 °F 50.0 °F 88% 30.10 in 9.0 mi Calm Calm - N/A   Overcast
12:55 AM 53.6 °F 50.0 °F 88% 30.09 in 10.0 mi West 3.5 mph - N/A   Overcast
1:15 AM 53.6 °F 50.0 °F 88% 30.09 in 10.0 mi WNW 3.5 mph - N/A   Overcast
1:35 AM 53.6 °F 50.0 °F 88% 30.08 in 10.0 mi West 3.5 mph - N/A   Overcast
1:55 AM 53.6 °F 50.0 °F 88% 30.08 in 10.0 mi Calm Calm - N/A   Overcast
2:15 AM 53.6 °F 50.0 °F 88% 30.08 in 10.0 mi Calm Calm - N/A   Overcast
2:35 AM 53.6 °F 50.0 °F 88% 30.09 in 10.0 mi Calm Calm - N/A   Overcast
2:55 AM 53.6 °F 50.0 °F 88% 30.09 in 10.0 mi NNE 3.5 mph - N/A   Overcast
3:15 AM 53.6 °F 50.0 °F 88% 30.08 in 10.0 mi Calm Calm - N/A   Overcast
3:35 AM 53.6 °F 50.0 °F 88% 30.08 in 10.0 mi Calm Calm - N/A   Overcast
3:55 AM 53.6 °F 50.0 °F 88% 30.08 in 10.0 mi Calm Calm - N/A   Overcast
4:15 AM 51.8 °F 50.0 °F 94% 30.08 in 10.0 mi Calm Calm - N/A   Overcast
4:35 AM 50.0 °F 48.2 °F 94% 30.07 in 10.0 mi Calm Calm - N/A   Overcast
4:55 AM 51.8 °F 48.2 °F 88% 30.07 in 10.0 mi Calm Calm - N/A   Overcast
5:15 AM 50.0 °F 50.0 °F 100% 30.06 in 10.0 mi SE 3.5 mph - N/A   Overcast
5:35 AM 50.0 °F 48.2 °F 94% 30.06 in 10.0 mi Calm Calm - N/A   Mostly Cloudy
5:55 AM 50.0 °F 48.2 °F 94% 30.05 in 10.0 mi Calm Calm - N/A   Partly Cloudy
6:15 AM 50.0 °F 48.2 °F 94% 30.05 in 10.0 mi Calm Calm - N/A   Partly Cloudy
6:35 AM 50.0 °F 48.2 °F 94% 30.05 in 10.0 mi Calm Calm - N/A   Mostly Cloudy
6:55 AM 48.2 °F 48.2 °F 100% 30.06 in 10.0 mi Calm Calm - N/A   Mostly Cloudy
7:15 AM 50.0 °F 48.2 °F 94% 30.06 in 10.0 mi Calm Calm - N/A   Mostly Cloudy
7:35 AM 51.8 °F 50.0 °F 94% 30.06 in 10.0 mi ESE 3.5 mph - N/A   Partly Cloudy
7:55 AM 53.6 °F 48.2 °F 82% 30.06 in 10.0 mi SE 3.5 mph - N/A   Clear
8:15 AM 53.6 °F 50.0 °F 88% 30.06 in 10.0 mi SE 3.5 mph - N/A   Clear
8:35 AM 53.6 °F 48.2 °F 82% 30.06 in 10.0 mi ESE 4.6 mph - N/A   Clear
8:55 AM 55.4 °F 50.0 °F 82% 30.06 in 10.0 mi SE 5.8 mph - N/A   Clear
9:15 AM 55.4 °F 48.2 °F 77% 30.06 in 10.0 mi SE 3.5 mph - N/A   Clear
9:35 AM 57.2 °F 48.2 °F 72% 30.06 in 10.0 mi Calm Calm - N/A   Clear
9:55 AM 57.2 °F 48.2 °F 72% 30.06 in 10.0 mi Calm Calm - N/A   Clear
10:15 AM 57.2 °F 48.2 °F 72% 30.06 in 10.0 mi Calm Calm - N/A   Clear
10:35 AM 59.0 °F 48.2 °F 67% 30.06 in 10.0 mi NNW 3.5 mph - N/A   Clear
10:55 AM 59.0 °F 50.0 °F 72% 30.06 in 10.0 mi West 5.8 mph - N/A   Clear
11:15 AM 59.0 °F 50.0 °F 72% 30.06 in 10.0 mi NNW 6.9 mph - N/A   Mostly Cloudy
11:35 AM 60.8 °F 50.0 °F 68% 30.06 in 10.0 mi NW 8.1 mph - N/A   Mostly Cloudy
11:55 AM 59.0 °F 50.0 °F 72% 30.06 in 10.0 mi NNW 11.5 mph - N/A   Overcast
12:15 PM 62.6 °F 50.0 °F 63% 30.06 in 10.0 mi NW 12.7 mph - N/A   Mostly Cloudy
12:35 PM 62.6 °F 48.2 °F 59% 30.05 in 10.0 mi NNW 12.7 mph - N/A   Scattered Clouds
12:55 PM 62.6 °F 48.2 °F 59% 30.05 in 10.0 mi NNW 12.7 mph - N/A   Partly Cloudy
1:15 PM 62.6 °F 50.0 °F 63% 30.04 in 10.0 mi NNW 12.7 mph - N/A   Mostly Cloudy
1:35 PM 64.4 °F 50.0 °F 59% 30.04 in 10.0 mi NNW 13.8 mph - N/A   Scattered Clouds
1:55 PM 62.6 °F 48.2 °F 59% 30.03 in 10.0 mi NNW 13.8 mph - N/A   Clear
2:15 PM 62.6 °F 48.2 °F 59% 30.03 in 10.0 mi NNW 11.5 mph - N/A   Scattered Clouds
2:35 PM 62.6 °F 48.2 °F 59% 30.02 in 10.0 mi NW 11.5 mph - N/A   Mostly Cloudy
2:55 PM 62.6 °F 46.4 °F 55% 30.02 in 10.0 mi NW 9.2 mph - N/A   Overcast
3:15 PM 62.6 °F 46.4 °F 55% 30.02 in 10.0 mi WNW 8.1 mph 17.3 mph N/A   Overcast
3:35 PM 64.4 °F 46.4 °F 52% 30.02 in 10.0 mi West 9.2 mph - N/A   Overcast
3:55 PM 64.4 °F 46.4 °F 52% 30.02 in 10.0 mi SW 10.4 mph 18.4 mph N/A   Mostly Cloudy
4:15 PM 64.4 °F 46.4 °F 52% 30.02 in 10.0 mi West 10.4 mph - N/A   Mostly Cloudy
4:35 PM 64.4 °F 46.4 °F 52% 30.02 in 10.0 mi SW 10.4 mph - N/A   Partly Cloudy
4:55 PM 62.6 °F 46.4 °F 55% 30.02 in 10.0 mi West 12.7 mph - N/A   Mostly Cloudy
5:15 PM 62.6 °F 46.4 °F 55% 30.02 in 10.0 mi WSW 12.7 mph - N/A   Overcast
5:35 PM 60.8 °F 46.4 °F 59% 30.03 in 10.0 mi WSW 10.4 mph - N/A   Overcast
5:55 PM 62.6 °F 46.4 °F 55% 30.02 in 10.0 mi WSW 10.4 mph - N/A   Overcast
6:15 PM 62.6 °F 46.4 °F 55% 30.02 in 10.0 mi WSW 6.9 mph - N/A   Mostly Cloudy
6:35 PM 59.0 °F 46.4 °F 63% 30.02 in 10.0 mi West 6.9 mph - N/A   Overcast
6:55 PM 59.0 °F 46.4 °F 63% 30.02 in 10.0 mi West 6.9 mph - N/A   Mostly Cloudy
7:15 PM 59.0 °F 46.4 °F 63% 30.02 in 10.0 mi SSW 6.9 mph - N/A   Mostly Cloudy
7:35 PM 59.0 °F 46.4 °F 63% 30.02 in 10.0 mi West 5.8 mph - N/A   Scattered Clouds
7:55 PM 57.2 °F 46.4 °F 67% 30.02 in 10.0 mi West 5.8 mph - N/A   Mostly Cloudy
8:15 PM 57.2 °F 46.4 °F 67% 30.02 in 10.0 mi Calm Calm - N/A   Overcast
8:35 PM 57.2 °F 46.4 °F 67% 30.02 in 10.0 mi West 3.5 mph - N/A   Overcast
8:55 PM 55.4 °F 46.4 °F 72% 30.02 in 10.0 mi NW 3.5 mph - N/A   Overcast
9:15 PM 55.4 °F 46.4 °F 72% 30.02 in 10.0 mi WNW 4.6 mph - N/A   Overcast
9:35 PM 55.4 °F 46.4 °F 72% 30.02 in 10.0 mi Calm Calm - N/A   Overcast
9:55 PM 55.4 °F 46.4 °F 72% 30.03 in 10.0 mi Calm Calm - N/A   Overcast
10:15 PM 55.4 °F 48.2 °F 77% 30.03 in 10.0 mi Calm Calm - N/A   Overcast
10:35 PM 55.4 °F 46.4 °F 72% 30.03 in 10.0 mi Calm Calm - N/A   Overcast
10:55 PM 55.4 °F 48.2 °F 77% 30.02 in 10.0 mi Calm Calm - N/A   Overcast
11:15 PM 55.4 °F 48.2 °F 77% 30.02 in 10.0 mi Calm Calm - N/A   Overcast
11:35 PM 55.4 °F 48.2 °F 77% 30.03 in 10.0 mi Calm Calm - N/A   Overcast
11:55 PM 55.4 °F 48.2 °F 77% 30.03 in 10.0 mi Calm Calm - N/A   Overcast